sat.trackr.live / text

‹ back to catalog

STARLINK-37475

NORAD 68839 · 2026-094A

PAYLOAD ACTIVE UNKNOWN

§ Identity

Operator
Country
US
Launch date
2026-04-26
Launch site
AFWTR
Launch vehicle
Mass (kg)
RCS (m²)

Purposes: comms

External: N2YO · Heavens-Above · Gunter

§ Orbital elements

Epoch: 2026-05-24T22:20:11.630688Z

Period
92.90 min
Inclination
97.2842°
Eccentricity
0.0002750
Mean motion
15.50128381 rev/d
Perigee alt
414.5 km
Apogee alt
418.2 km
Semi-major
6,794.5 km
B*
1.2966e-3
RAAN
159.5427°
Arg perigee
321.2841°
Mean anomaly
38.8213°
Rev number
447

§ Raw data

STARLINK-374751 68839U 26094A   26144.93069017  .00073477  00000+0  12966-2 0  99902 68839  97.2842 159.5427 0002750 321.2841  38.8213 15.50128381  4470

JSON: /api/v1/satellites/68839 · /tle

For live sub-satellite position, see the globe view (requires WebGL).

§ Visibility from observer

Set your observer location to see the next 7 days of passes ≥ 10°. The values pass through the URL so the page stays shareable.

No JS? Fill the form by hand. The geolocation button needs JavaScript.